Year,Month,Day,Hour,Minute,Value (Times are PST for temperature in C)
2007,07,19,06,21,13.30
2007,07,19,06,22,13.30
2007,07,19,06,23,13.40
2007,07,19,06,24,13.40
2007,07,19,06,25,13.40
2007,07,19,06,26,13.40
2007,07,19,06,27,13.40
2007,07,19,06,28,13.40
2007,07,19,06,29,13.40
2007,07,19,06,30,13.40
2007,07,19,06,31,13.50
2007,07,19,06,32,13.50
2007,07,19,06,33,13.50
2007,07,19,06,34,13.50
2007,07,19,06,35,13.50
2007,07,19,06,36,13.60
2007,07,19,06,37,13.60
2007,07,19,06,38,13.60
2007,07,19,06,39,13.60
2007,07,19,06,40,13.60
2007,07,19,06,41,13.60
2007,07,19,06,42,13.60
2007,07,19,06,43,13.70
2007,07,19,06,44,13.70
2007,07,19,06,45,13.70
2007,07,19,06,46,13.70
2007,07,19,06,47,13.70
2007,07,19,06,48,13.70
2007,07,19,06,49,13.70
2007,07,19,06,50,13.70
2007,07,19,06,51,13.70
2007,07,19,06,52,13.70
2007,07,19,06,53,13.80
2007,07,19,06,54,13.80
2007,07,19,06,55,13.80
2007,07,19,06,56,13.80
2007,07,19,06,57,13.80
2007,07,19,06,58,13.80
2007,07,19,06,59,13.80
2007,07,19,07,00,13.80
2007,07,19,07,01,13.90
2007,07,19,07,02,13.90
2007,07,19,07,03,13.90
2007,07,19,07,04,13.90
2007,07,19,07,05,13.90
2007,07,19,07,06,13.90
2007,07,19,07,07,13.90
2007,07,19,07,08,13.90
2007,07,19,07,09,13.90
2007,07,19,07,10,13.90
2007,07,19,07,11,13.90
2007,07,19,07,12,13.90
2007,07,19,07,13,13.90
2007,07,19,07,14,13.90
2007,07,19,07,15,13.90
2007,07,19,07,16,14.00
2007,07,19,07,17,13.90
2007,07,19,07,18,13.90
2007,07,19,07,19,13.90
2007,07,19,07,20,14.00
2007,07,19,07,21,14.00
2007,07,19,07,22,14.00
2007,07,19,07,23,14.00
2007,07,19,07,24,14.00
2007,07,19,07,25,14.00
2007,07,19,07,26,14.00
2007,07,19,07,27,14.00
2007,07,19,07,28,14.10
2007,07,19,07,29,14.10
2007,07,19,07,30,14.10
2007,07,19,07,31,14.10
2007,07,19,07,32,14.10
2007,07,19,07,33,14.10
2007,07,19,07,34,14.10
2007,07,19,07,35,14.20
2007,07,19,07,36,14.20
2007,07,19,07,37,14.20
2007,07,19,07,38,14.20
2007,07,19,07,39,14.20
2007,07,19,07,40,14.20
2007,07,19,07,41,14.20
2007,07,19,07,42,14.20
2007,07,19,07,43,14.20
2007,07,19,07,44,14.20
2007,07,19,07,45,14.20
2007,07,19,07,46,14.30
2007,07,19,07,47,14.30
2007,07,19,07,48,14.30
2007,07,19,07,49,14.30
2007,07,19,07,50,14.30
2007,07,19,07,51,14.30
2007,07,19,07,52,14.30
2007,07,19,07,53,14.30
2007,07,19,07,54,14.40
2007,07,19,07,55,14.30
2007,07,19,07,56,14.40
2007,07,19,07,57,14.30
2007,07,19,07,58,14.40
2007,07,19,07,59,14.40
2007,07,19,08,00,14.40
2007,07,19,08,01,14.40
2007,07,19,08,02,14.30
2007,07,19,08,03,14.30
2007,07,19,08,04,14.30
2007,07,19,08,05,14.30
2007,07,19,08,06,14.30
2007,07,19,08,07,14.30
2007,07,19,08,08,14.40
2007,07,19,08,09,14.40
2007,07,19,08,10,14.40
2007,07,19,08,11,14.40
2007,07,19,08,12,14.40
2007,07,19,08,13,14.40
2007,07,19,08,14,14.40
2007,07,19,08,15,14.40
2007,07,19,08,16,14.40
2007,07,19,08,17,14.40
2007,07,19,08,18,14.40
2007,07,19,08,19,14.40
2007,07,19,08,20,14.40
2007,07,19,08,21,14.40
2007,07,19,08,22,14.40
2007,07,19,08,23,14.40
2007,07,19,08,24,14.50
2007,07,19,08,25,14.50
2007,07,19,08,26,14.50
2007,07,19,08,27,14.50
2007,07,19,08,28,14.50
2007,07,19,08,29,14.50
2007,07,19,08,30,14.50
2007,07,19,08,31,14.40
2007,07,19,08,32,14.50
2007,07,19,08,33,14.50
2007,07,19,08,34,14.50
2007,07,19,08,35,14.50
2007,07,19,08,36,14.50
2007,07,19,08,37,14.50
2007,07,19,08,38,14.50
2007,07,19,08,39,14.50
2007,07,19,08,40,14.50
2007,07,19,08,41,14.50
2007,07,19,08,42,14.50
2007,07,19,08,43,14.50
2007,07,19,08,44,14.50
2007,07,19,08,45,14.50
2007,07,19,08,46,14.50
2007,07,19,08,47,14.50
2007,07,19,08,48,14.50
2007,07,19,08,49,14.50
2007,07,19,08,50,14.60
2007,07,19,08,51,14.50
2007,07,19,08,52,14.50
2007,07,19,08,53,14.40
2007,07,19,08,54,14.40
2007,07,19,08,55,14.40
2007,07,19,08,56,14.40
2007,07,19,08,57,14.40
2007,07,19,08,58,14.40
2007,07,19,08,59,14.40
2007,07,19,09,00,14.40
2007,07,19,09,01,14.40
2007,07,19,09,02,14.50
2007,07,19,09,03,14.50
2007,07,19,09,04,14.60
2007,07,19,09,05,14.60
2007,07,19,09,06,14.60
2007,07,19,09,07,14.70
2007,07,19,09,08,14.70
2007,07,19,09,09,14.70
2007,07,19,09,10,14.70
2007,07,19,09,11,14.80
2007,07,19,09,12,14.80
2007,07,19,09,13,14.80
2007,07,19,09,14,14.80
2007,07,19,09,15,14.80
2007,07,19,09,16,14.80
2007,07,19,09,17,14.90
2007,07,19,09,18,15.00
2007,07,19,09,19,15.00
2007,07,19,09,20,15.00
2007,07,19,09,21,15.00
2007,07,19,09,22,15.00
2007,07,19,09,23,15.00
2007,07,19,09,24,15.00
2007,07,19,09,25,14.90
2007,07,19,09,26,14.90
2007,07,19,09,27,14.90
2007,07,19,09,28,15.00
2007,07,19,09,29,15.00
2007,07,19,09,30,15.00
2007,07,19,09,31,15.00
2007,07,19,09,32,15.00
2007,07,19,09,33,15.00
2007,07,19,09,34,15.00
2007,07,19,09,35,15.00
2007,07,19,09,36,15.00
2007,07,19,09,37,15.00
2007,07,19,09,38,15.00
2007,07,19,09,39,15.10
2007,07,19,09,40,15.10
2007,07,19,09,41,15.20
2007,07,19,09,42,15.20
2007,07,19,09,43,15.20
2007,07,19,09,44,15.30
2007,07,19,09,45,15.30
2007,07,19,09,46,15.40
2007,07,19,09,47,15.40
2007,07,19,09,48,15.40
2007,07,19,09,49,15.50
2007,07,19,09,50,15.40
2007,07,19,09,51,15.40
2007,07,19,09,52,15.40
2007,07,19,09,53,15.30
2007,07,19,09,54,15.30
2007,07,19,09,55,15.40
2007,07,19,09,56,15.40
2007,07,19,09,57,15.50
2007,07,19,09,58,15.60
2007,07,19,09,59,15.60
2007,07,19,10,00,15.70
2007,07,19,10,01,15.70
2007,07,19,10,02,15.80
2007,07,19,10,03,15.80
2007,07,19,10,04,15.90
2007,07,19,10,05,15.90
2007,07,19,10,06,15.90
2007,07,19,10,07,15.90
2007,07,19,10,08,15.90
2007,07,19,10,09,16.00
2007,07,19,10,10,16.00
2007,07,19,10,11,16.00
2007,07,19,10,12,16.10
2007,07,19,10,13,16.10
2007,07,19,10,14,16.10
2007,07,19,10,15,16.20
2007,07,19,10,16,16.20
2007,07,19,10,17,16.20
2007,07,19,10,18,16.20
2007,07,19,10,19,16.20
2007,07,19,10,20,16.20
2007,07,19,10,21,16.20
2007,07,19,10,22,16.20
2007,07,19,10,23,16.20
2007,07,19,10,24,16.20
2007,07,19,10,25,16.20
2007,07,19,10,26,16.30
2007,07,19,10,27,16.30
2007,07,19,10,28,16.40
2007,07,19,10,29,16.50
2007,07,19,10,30,16.60
2007,07,19,10,31,16.60
2007,07,19,10,32,16.70
2007,07,19,10,33,16.70
2007,07,19,10,34,16.70
2007,07,19,10,35,16.60
2007,07,19,10,36,16.60
2007,07,19,10,37,16.60
2007,07,19,10,38,16.60
2007,07,19,10,39,16.60
2007,07,19,10,40,16.60
2007,07,19,10,41,16.70
2007,07,19,10,42,16.70
2007,07,19,10,43,16.80
2007,07,19,10,44,16.80
2007,07,19,10,45,16.80
2007,07,19,10,46,16.90
2007,07,19,10,47,16.90
2007,07,19,10,48,16.90
2007,07,19,10,49,16.90
2007,07,19,10,50,16.90
2007,07,19,10,51,16.90
2007,07,19,10,52,17.00
2007,07,19,10,53,17.10
2007,07,19,10,54,17.10
2007,07,19,10,55,17.10
2007,07,19,10,56,17.10
2007,07,19,10,57,17.10
2007,07,19,10,58,17.20
2007,07,19,10,59,17.20
2007,07,19,11,00,17.20
2007,07,19,11,01,17.10
2007,07,19,11,02,17.10
2007,07,19,11,03,17.10
2007,07,19,11,04,17.00
2007,07,19,11,05,17.10
2007,07,19,11,06,17.10
2007,07,19,11,07,17.20
2007,07,19,11,08,17.20
2007,07,19,11,09,17.20
2007,07,19,11,10,17.30
2007,07,19,11,11,17.30
2007,07,19,11,12,17.30
2007,07,19,11,13,17.30
2007,07,19,11,14,17.40
2007,07,19,11,15,17.40
2007,07,19,11,16,17.40
2007,07,19,11,17,17.30
2007,07,19,11,18,17.30
2007,07,19,11,19,17.30
2007,07,19,11,20,17.40
2007,07,19,11,21,17.40
2007,07,19,11,22,17.50
2007,07,19,11,23,17.50
2007,07,19,11,24,17.60
2007,07,19,11,25,17.60
2007,07,19,11,26,17.70
2007,07,19,11,27,17.70
2007,07,19,11,28,17.80
2007,07,19,11,29,17.80
2007,07,19,11,30,17.80
2007,07,19,11,31,17.70
2007,07,19,11,32,17.70
2007,07,19,11,33,17.80
2007,07,19,11,34,17.80
2007,07,19,11,35,17.80
2007,07,19,11,36,17.80
2007,07,19,11,37,17.90
2007,07,19,11,38,17.90
2007,07,19,11,39,17.90
2007,07,19,11,40,17.90
2007,07,19,11,41,17.80
2007,07,19,11,42,17.80
2007,07,19,11,43,17.80
2007,07,19,11,44,17.80
2007,07,19,11,45,17.80
2007,07,19,11,46,17.80
2007,07,19,11,47,17.80
2007,07,19,11,48,17.90
2007,07,19,11,49,17.90
2007,07,19,11,50,17.90
2007,07,19,11,51,17.90
2007,07,19,11,52,17.80
2007,07,19,11,53,17.80
2007,07,19,11,54,17.80
2007,07,19,11,55,17.70
2007,07,19,11,56,17.70
2007,07,19,11,57,17.80
2007,07,19,11,58,17.90
2007,07,19,11,59,18.00
2007,07,19,12,00,18.10
2007,07,19,12,01,18.30
2007,07,19,12,02,18.30
2007,07,19,12,03,18.40
2007,07,19,12,04,18.40
2007,07,19,12,05,18.50
2007,07,19,12,06,18.50
2007,07,19,12,07,18.60
2007,07,19,12,08,18.60
2007,07,19,12,09,18.70
2007,07,19,12,10,18.70
2007,07,19,12,11,18.80
2007,07,19,12,12,18.80
2007,07,19,12,13,18.90
2007,07,19,12,14,18.90
2007,07,19,12,15,18.90
2007,07,19,12,16,19.10
2007,07,19,12,17,19.10
2007,07,19,12,18,19.20
2007,07,19,12,19,19.10
2007,07,19,12,20,19.10
2007,07,19,12,21,19.00
2007,07,19,12,22,18.90
2007,07,19,12,23,18.90
2007,07,19,12,24,18.90
2007,07,19,12,25,18.90
2007,07,19,12,26,18.80
2007,07,19,12,27,18.80
2007,07,19,12,28,18.80
2007,07,19,12,29,18.80
2007,07,19,12,30,18.90
2007,07,19,12,31,19.00
2007,07,19,12,32,19.00
2007,07,19,12,33,19.10
2007,07,19,12,34,19.10
2007,07,19,12,35,18.90
2007,07,19,12,36,18.80
2007,07,19,12,37,18.80
2007,07,19,12,38,18.80
2007,07,19,12,39,18.80
2007,07,19,12,40,18.80
2007,07,19,12,41,18.90
2007,07,19,12,42,18.90
2007,07,19,12,43,18.90
2007,07,19,12,44,19.00
2007,07,19,12,45,19.10
2007,07,19,12,46,19.10
2007,07,19,12,47,19.20
2007,07,19,12,48,19.30
2007,07,19,12,49,19.30
2007,07,19,12,50,19.40
2007,07,19,12,51,19.40
2007,07,19,12,52,19.40
2007,07,19,12,53,19.40
2007,07,19,12,54,19.40
2007,07,19,12,55,19.40
2007,07,19,12,56,19.40
2007,07,19,12,57,19.40
2007,07,19,12,58,19.40
2007,07,19,12,59,19.50
2007,07,19,13,00,19.60
2007,07,19,13,01,19.60
2007,07,19,13,02,19.60
2007,07,19,13,03,19.60
2007,07,19,13,04,19.60
2007,07,19,13,05,19.70
2007,07,19,13,06,19.70
2007,07,19,13,07,19.60
2007,07,19,13,08,19.50
2007,07,19,13,09,19.50
2007,07,19,13,10,19.40
2007,07,19,13,11,19.30
2007,07,19,13,12,19.30
2007,07,19,13,13,19.30
2007,07,19,13,14,19.40
2007,07,19,13,15,19.50
2007,07,19,13,16,19.60
2007,07,19,13,17,19.80
2007,07,19,13,18,19.80
2007,07,19,13,19,19.80
2007,07,19,13,20,19.70
2007,07,19,13,21,19.70
2007,07,19,13,22,19.70
2007,07,19,13,23,19.70
2007,07,19,13,24,19.70
2007,07,19,13,25,19.80
2007,07,19,13,26,19.80
2007,07,19,13,27,19.90
2007,07,19,13,28,20.00
2007,07,19,13,29,20.00
2007,07,19,13,30,20.00
2007,07,19,13,31,19.90
2007,07,19,13,32,19.80
2007,07,19,13,33,19.80
2007,07,19,13,34,19.70
2007,07,19,13,35,19.60
2007,07,19,13,36,19.50
2007,07,19,13,37,19.30
2007,07,19,13,38,19.20
2007,07,19,13,39,19.10
2007,07,19,13,40,19.10
2007,07,19,13,41,19.00
2007,07,19,13,42,19.00
2007,07,19,13,43,19.10
2007,07,19,13,44,19.10
2007,07,19,13,45,19.10
2007,07,19,13,46,19.00
2007,07,19,13,47,19.10
2007,07,19,13,48,19.10
2007,07,19,13,49,19.10
2007,07,19,13,50,19.00
2007,07,19,13,51,19.10
2007,07,19,13,52,19.20
2007,07,19,13,53,19.20
2007,07,19,13,54,19.30
2007,07,19,13,55,19.40
2007,07,19,13,56,19.50
2007,07,19,13,57,19.50
2007,07,19,13,58,19.60
2007,07,19,13,59,19.70
2007,07,19,14,00,19.70
2007,07,19,14,01,19.70
2007,07,19,14,02,19.60
2007,07,19,14,03,19.60
2007,07,19,14,04,19.60
2007,07,19,14,05,19.60
2007,07,19,14,06,19.60
2007,07,19,14,07,19.50
2007,07,19,14,08,19.50
2007,07,19,14,09,19.50
2007,07,19,14,10,19.60
2007,07,19,14,11,19.60
2007,07,19,14,12,19.50
2007,07,19,14,13,19.50
2007,07,19,14,14,19.40
2007,07,19,14,15,19.40
2007,07,19,14,16,19.40
2007,07,19,14,17,19.40
2007,07,19,14,18,19.40
2007,07,19,14,19,19.30
2007,07,19,14,20,19.30
2007,07,19,14,21,19.40
2007,07,19,14,22,19.40
2007,07,19,14,23,19.40
2007,07,19,14,24,19.50
2007,07,19,14,25,19.60
2007,07,19,14,26,19.70
2007,07,19,14,27,19.80
2007,07,19,14,28,19.90
2007,07,19,14,29,19.90
2007,07,19,14,30,20.00
2007,07,19,14,31,20.10
2007,07,19,14,32,20.10
2007,07,19,14,33,20.20
2007,07,19,14,34,20.30
2007,07,19,14,35,20.30
2007,07,19,14,36,20.40
2007,07,19,14,37,20.50
2007,07,19,14,38,20.50
2007,07,19,14,39,20.50
2007,07,19,14,40,20.50
2007,07,19,14,41,20.40
2007,07,19,14,42,20.40
2007,07,19,14,43,20.30
2007,07,19,14,44,20.20
2007,07,19,14,45,20.20
2007,07,19,14,46,20.20
2007,07,19,14,47,20.20
2007,07,19,14,48,20.20
2007,07,19,14,49,20.20
2007,07,19,14,50,20.20
2007,07,19,14,51,20.20
2007,07,19,14,52,20.20
2007,07,19,14,53,20.20
2007,07,19,14,54,20.10
2007,07,19,14,55,20.10
2007,07,19,14,56,20.10
2007,07,19,14,57,20.10
2007,07,19,14,58,20.00
2007,07,19,14,59,20.00
2007,07,19,15,00,19.90
2007,07,19,15,01,19.90
2007,07,19,15,02,19.90
2007,07,19,15,03,19.80
2007,07,19,15,04,19.70
2007,07,19,15,05,19.70
2007,07,19,15,06,19.60
2007,07,19,15,07,19.50
2007,07,19,15,08,19.50
2007,07,19,15,09,19.40
2007,07,19,15,10,19.40
2007,07,19,15,11,19.30
2007,07,19,15,12,19.30
2007,07,19,15,13,19.20
2007,07,19,15,14,19.20
2007,07,19,15,15,19.10
2007,07,19,15,16,19.10
2007,07,19,15,17,19.00
2007,07,19,15,18,19.00
2007,07,19,15,19,19.00
2007,07,19,15,20,18.90
2007,07,19,15,21,18.90
2007,07,19,15,22,18.90
2007,07,19,15,23,18.90
2007,07,19,15,24,18.90
2007,07,19,15,25,18.90
2007,07,19,15,26,18.90
2007,07,19,15,27,18.90
2007,07,19,15,28,18.90
2007,07,19,15,29,18.90
2007,07,19,15,30,18.90
2007,07,19,15,31,18.90
2007,07,19,15,32,19.00
2007,07,19,15,33,19.00
2007,07,19,15,34,19.10
2007,07,19,15,35,19.10
2007,07,19,15,36,19.20
2007,07,19,15,37,19.20
2007,07,19,15,38,19.20
2007,07,19,15,39,19.20
2007,07,19,15,40,19.20
2007,07,19,15,41,19.30
2007,07,19,15,42,19.30
2007,07,19,15,43,19.30
2007,07,19,15,44,19.30
2007,07,19,15,45,19.30
2007,07,19,15,46,19.40
2007,07,19,15,47,19.40
2007,07,19,15,48,19.40
2007,07,19,15,49,19.50
2007,07,19,15,50,19.60
2007,07,19,15,51,19.70
2007,07,19,15,52,19.80
2007,07,19,15,53,19.90
2007,07,19,15,54,20.00
2007,07,19,15,55,20.00
2007,07,19,15,56,20.10
2007,07,19,15,57,20.10
2007,07,19,15,58,20.20
2007,07,19,15,59,20.10
2007,07,19,16,00,20.10
2007,07,19,16,01,20.00
2007,07,19,16,02,20.10
2007,07,19,16,03,20.10
2007,07,19,16,04,20.20
2007,07,19,16,05,20.30
2007,07,19,16,06,20.30
2007,07,19,16,07,20.30
2007,07,19,16,08,20.40
2007,07,19,16,09,20.50
2007,07,19,16,10,20.60
2007,07,19,16,11,20.70
2007,07,19,16,12,20.80
2007,07,19,16,13,20.90
2007,07,19,16,14,20.90
2007,07,19,16,15,20.90
2007,07,19,16,16,20.90
2007,07,19,16,17,20.80
2007,07,19,16,18,20.80
2007,07,19,16,19,20.80
2007,07,19,16,20,20.80
2007,07,19,16,21,20.80
2007,07,19,16,22,20.80
2007,07,19,16,23,20.80
2007,07,19,16,24,20.80
2007,07,19,16,25,20.80
2007,07,19,16,26,20.80
2007,07,19,16,27,20.80
2007,07,19,16,28,20.70
2007,07,19,16,29,20.70
2007,07,19,16,30,20.60
2007,07,19,16,31,20.50
2007,07,19,16,32,20.40
2007,07,19,16,33,20.40
2007,07,19,16,34,20.40
2007,07,19,16,35,20.50
2007,07,19,16,36,20.50
2007,07,19,16,37,20.50
2007,07,19,16,38,20.50
2007,07,19,16,39,20.50
2007,07,19,16,40,20.60
2007,07,19,16,41,20.50
2007,07,19,16,42,20.50
2007,07,19,16,43,20.50
2007,07,19,16,44,20.40
2007,07,19,16,45,20.40
2007,07,19,16,46,20.40
2007,07,19,16,47,20.50
2007,07,19,16,48,20.50
2007,07,19,16,49,20.60
2007,07,19,16,50,20.60
2007,07,19,16,51,20.70
2007,07,19,16,52,20.70
2007,07,19,16,53,20.70
2007,07,19,16,54,20.70
2007,07,19,16,55,20.80
2007,07,19,16,56,20.70
2007,07,19,16,57,20.70
2007,07,19,16,58,20.70
2007,07,19,16,59,20.70
2007,07,19,17,00,20.60
2007,07,19,17,01,20.60
2007,07,19,17,02,20.60
2007,07,19,17,03,20.60
2007,07,19,17,04,20.60
2007,07,19,17,05,20.60
2007,07,19,17,06,20.60
2007,07,19,17,07,20.60
2007,07,19,17,08,20.70
2007,07,19,17,09,20.60
2007,07,19,17,10,20.60
2007,07,19,17,11,20.60
2007,07,19,17,12,20.60
2007,07,19,17,13,20.60
2007,07,19,17,14,20.60
2007,07,19,17,15,20.60
2007,07,19,17,16,20.60
2007,07,19,17,17,20.60
2007,07,19,17,18,20.60
2007,07,19,17,19,20.60
2007,07,19,17,20,20.70
2007,07,19,17,21,20.70
2007,07,19,17,22,20.80
2007,07,19,17,23,20.90
2007,07,19,17,24,21.00
2007,07,19,17,25,21.10
2007,07,19,17,26,21.20
2007,07,19,17,27,21.30
2007,07,19,17,28,21.30
2007,07,19,17,29,21.30
2007,07,19,17,30,21.30
2007,07,19,17,31,21.20
2007,07,19,17,32,21.10
2007,07,19,17,33,21.10
2007,07,19,17,34,21.00
2007,07,19,17,35,20.90
2007,07,19,17,36,20.90
2007,07,19,17,37,20.80
2007,07,19,17,38,20.80
2007,07,19,17,39,20.80
2007,07,19,17,40,20.80
2007,07,19,17,41,20.80
2007,07,19,17,42,20.80
2007,07,19,17,43,20.80
2007,07,19,17,44,20.80
2007,07,19,17,45,20.80
2007,07,19,17,46,20.80
2007,07,19,17,47,20.80
2007,07,19,17,48,20.80
2007,07,19,17,49,20.80
2007,07,19,17,50,20.80
2007,07,19,17,51,20.80
2007,07,19,17,52,20.80
2007,07,19,17,53,20.80
2007,07,19,17,54,20.80
2007,07,19,17,55,20.80
2007,07,19,17,56,20.70
2007,07,19,17,57,20.70
2007,07,19,17,58,20.70
2007,07,19,17,59,20.80
2007,07,19,18,00,20.80
2007,07,19,18,01,20.80
2007,07,19,18,02,20.80
2007,07,19,18,03,20.90
2007,07,19,18,04,20.90
2007,07,19,18,05,21.00
2007,07,19,18,06,21.00
2007,07,19,18,07,21.00
2007,07,19,18,08,21.00
2007,07,19,18,09,21.10
2007,07,19,18,10,21.10
2007,07,19,18,11,21.10
2007,07,19,18,12,21.10
2007,07,19,18,13,21.20
2007,07,19,18,14,21.20
2007,07,19,18,15,21.30
2007,07,19,18,16,21.30
2007,07,19,18,17,21.40
2007,07,19,18,18,21.40
2007,07,19,18,19,21.40
2007,07,19,18,20,21.40
2007,07,19,18,21,21.40
2007,07,19,18,22,21.40
2007,07,19,18,23,21.40
2007,07,19,18,24,21.40
2007,07,19,18,25,21.40
2007,07,19,18,26,21.40
2007,07,19,18,27,21.40
2007,07,19,18,28,21.40
2007,07,19,18,29,21.40
2007,07,19,18,30,21.40
2007,07,19,18,31,21.40
2007,07,19,18,32,21.40
2007,07,19,18,33,21.40
2007,07,19,18,34,21.30
2007,07,19,18,35,21.30
2007,07,19,18,36,21.20
2007,07,19,18,37,21.20
2007,07,19,18,38,21.20
2007,07,19,18,39,21.10
2007,07,19,18,40,21.10
2007,07,19,18,41,21.10
2007,07,19,18,42,21.10
2007,07,19,18,43,21.10
2007,07,19,18,44,21.10
2007,07,19,18,45,21.10
2007,07,19,18,46,21.10
2007,07,19,18,47,21.10
2007,07,19,18,48,21.10
2007,07,19,18,49,21.10
2007,07,19,18,50,21.00
2007,07,19,18,51,20.90
2007,07,19,18,52,20.90
2007,07,19,18,53,20.90
2007,07,19,18,54,20.90
2007,07,19,18,55,20.90
2007,07,19,18,56,20.90
2007,07,19,18,57,21.00
2007,07,19,18,58,21.10
2007,07,19,18,59,21.10
2007,07,19,19,00,21.20
2007,07,19,19,01,21.30
2007,07,19,19,02,21.00
2007,07,19,19,03,20.80
2007,07,19,19,04,20.50
2007,07,19,19,05,20.20
2007,07,19,19,06,19.90
2007,07,19,19,07,19.70
2007,07,19,19,08,19.70
2007,07,19,19,09,19.40
2007,07,19,19,10,19.20
2007,07,19,19,11,19.10
2007,07,19,19,12,19.00
2007,07,19,19,13,18.90
2007,07,19,19,14,18.90
2007,07,19,19,15,18.80
2007,07,19,19,16,18.80
2007,07,19,19,17,18.80
2007,07,19,19,18,18.80
2007,07,19,19,19,18.70
2007,07,19,19,20,18.70
2007,07,19,19,21,18.60
2007,07,19,19,22,18.60
2007,07,19,19,23,18.60
2007,07,19,19,24,18.60
2007,07,19,19,25,18.60
2007,07,19,19,26,18.60
2007,07,19,19,27,18.60
2007,07,19,19,28,18.60
2007,07,19,19,29,18.60
2007,07,19,19,30,18.60
2007,07,19,19,31,18.60
2007,07,19,19,32,18.60
2007,07,19,19,33,18.70
2007,07,19,19,34,18.70
2007,07,19,19,35,18.70
2007,07,19,19,36,18.70
2007,07,19,19,37,18.80
2007,07,19,19,38,18.80
2007,07,19,19,39,18.80
2007,07,19,19,40,18.80
2007,07,19,19,41,18.90
2007,07,19,19,42,18.90
2007,07,19,19,43,18.90
2007,07,19,19,44,18.90
2007,07,19,19,45,18.90
2007,07,19,19,46,18.90
2007,07,19,19,47,19.00
2007,07,19,19,48,19.00
2007,07,19,19,49,19.00
2007,07,19,19,50,19.00
2007,07,19,19,51,19.00
2007,07,19,19,52,19.00
2007,07,19,19,53,19.00
2007,07,19,19,54,19.00
2007,07,19,19,55,19.00
2007,07,19,19,56,19.00
2007,07,19,19,57,18.90
2007,07,19,19,58,18.90
2007,07,19,19,59,18.90
2007,07,19,20,00,19.00
2007,07,19,20,01,19.00
2007,07,19,20,02,19.00
2007,07,19,20,03,18.90
2007,07,19,20,04,18.90
2007,07,19,20,05,18.90
2007,07,19,20,06,18.90
2007,07,19,20,07,18.90
2007,07,19,20,08,19.00
2007,07,19,20,09,19.00
2007,07,19,20,10,18.90
2007,07,19,20,11,19.00
2007,07,19,20,12,18.90
2007,07,19,20,13,18.90
2007,07,19,20,14,18.90
2007,07,19,20,15,18.90
2007,07,19,20,16,18.90
2007,07,19,20,17,18.90
2007,07,19,20,18,18.90
2007,07,19,20,19,18.80
2007,07,19,20,20,18.80
2007,07,19,20,21,18.80
2007,07,19,20,22,18.80
2007,07,19,20,23,18.80
2007,07,19,20,24,18.80
2007,07,19,20,25,18.80
2007,07,19,20,26,18.80
2007,07,19,20,27,18.80
2007,07,19,20,28,18.80
2007,07,19,20,29,18.80
2007,07,19,20,30,18.80
2007,07,19,20,31,18.70
2007,07,19,20,32,18.70
2007,07,19,20,33,18.70
2007,07,19,20,34,18.70
2007,07,19,20,35,18.70
2007,07,19,20,36,18.60
2007,07,19,20,37,18.60
2007,07,19,20,38,18.50
2007,07,19,20,39,18.40
2007,07,19,20,40,18.40
2007,07,19,20,41,18.40
2007,07,19,20,42,18.30
2007,07,19,20,43,18.30
2007,07,19,20,44,18.20
2007,07,19,20,45,18.20
2007,07,19,20,46,18.20
2007,07,19,20,47,18.20
2007,07,19,20,48,18.10
2007,07,19,20,49,18.10
2007,07,19,20,50,18.10
2007,07,19,20,51,18.00
2007,07,19,20,52,18.00
2007,07,19,20,53,17.90
2007,07,19,20,54,17.90
2007,07,19,20,55,17.90
2007,07,19,20,56,17.90
2007,07,19,20,57,17.90
2007,07,19,20,58,17.90
2007,07,19,20,59,17.90
2007,07,19,21,00,17.80
2007,07,19,21,01,17.80
2007,07,19,21,02,17.80
2007,07,19,21,03,17.80
2007,07,19,21,04,17.80
2007,07,19,21,05,17.80
2007,07,19,21,06,17.80
2007,07,19,21,07,17.70
2007,07,19,21,08,17.70
2007,07,19,21,09,17.60
2007,07,19,21,10,17.60
2007,07,19,21,11,17.60
2007,07,19,21,12,17.60
2007,07,19,21,13,17.50
2007,07,19,21,14,17.40
2007,07,19,21,15,17.40
2007,07,19,21,16,17.30
2007,07,19,21,17,17.30
2007,07,19,21,18,17.30
2007,07,19,21,19,17.30
2007,07,19,21,20,17.20
2007,07,19,21,21,17.20
2007,07,19,21,22,17.20
2007,07,19,21,23,17.20
2007,07,19,21,24,17.20
2007,07,19,21,25,17.20
2007,07,19,21,26,17.20
2007,07,19,21,27,17.20
2007,07,19,21,28,17.20
2007,07,19,21,29,17.20
2007,07,19,21,30,17.10
2007,07,19,21,31,17.10
2007,07,19,21,32,17.10
2007,07,19,21,33,17.10
2007,07,19,21,34,17.10
2007,07,19,21,35,17.10
2007,07,19,21,36,17.10
2007,07,19,21,37,17.00
2007,07,19,21,38,17.00
2007,07,19,21,39,17.00
2007,07,19,21,40,17.00
2007,07,19,21,41,16.90
2007,07,19,21,42,16.90
2007,07,19,21,43,16.80
2007,07,19,21,44,16.80
2007,07,19,21,45,16.80
2007,07,19,21,46,16.70
2007,07,19,21,47,16.70
2007,07,19,21,48,16.60
2007,07,19,21,49,16.60
2007,07,19,21,50,16.60
2007,07,19,21,51,16.60
2007,07,19,21,52,16.60
2007,07,19,21,53,16.60
2007,07,19,21,54,16.60
2007,07,19,21,55,16.60
2007,07,19,21,56,16.60
2007,07,19,21,57,16.60
2007,07,19,21,58,16.60
2007,07,19,21,59,16.60
2007,07,19,22,00,16.60
2007,07,19,22,01,16.60
2007,07,19,22,02,16.60
2007,07,19,22,03,16.60
2007,07,19,22,04,16.60
2007,07,19,22,05,16.50
2007,07,19,22,06,16.50
2007,07,19,22,07,16.50
2007,07,19,22,08,16.50
2007,07,19,22,09,16.50
2007,07,19,22,10,16.40
2007,07,19,22,11,16.40
2007,07,19,22,12,16.40
2007,07,19,22,13,16.40
2007,07,19,22,14,16.30
2007,07,19,22,15,16.30
2007,07,19,22,16,16.30
2007,07,19,22,17,16.30
2007,07,19,22,18,16.20
2007,07,19,22,19,16.20
2007,07,19,22,20,16.20
2007,07,19,22,21,16.20
2007,07,19,22,22,16.20
2007,07,19,22,23,16.20
2007,07,19,22,24,16.20
2007,07,19,22,25,16.20
2007,07,19,22,26,16.20
2007,07,19,22,27,16.20
2007,07,19,22,28,16.20
2007,07,19,22,29,16.10
2007,07,19,22,30,16.10
2007,07,19,22,31,16.10
2007,07,19,22,32,16.00
2007,07,19,22,33,15.90
2007,07,19,22,34,15.90
2007,07,19,22,35,15.90
2007,07,19,22,36,15.90
2007,07,19,22,37,15.90
2007,07,19,22,38,15.90
2007,07,19,22,39,15.90
2007,07,19,22,40,15.90
2007,07,19,22,41,15.90
2007,07,19,22,42,15.90
2007,07,19,22,43,15.90
2007,07,19,22,44,15.90
